Flag for U.S.A. Weather past 2 weeks in Beaumont, Texas, U.S.A.

Now
74 °F

Passing clouds.


Feels Like: 70 °F
Forecast: 71 / 86 °F
Wind: 5 mph from North

Location: Jefferson County Airport

Current Time: Sep 2, 2015 at 6:24:47 AM

Latest Report: Sep 2, 2015 at 5:53 AM


Visibility: 9 mi

Pressure: 30.01 "Hg

Humidity: 97%

Dew point: 73 °F

Location of BeaumontLocation

Historic Weather in Beaumont — Graph

°F

Beaumont temperature yesterday

Maximum temperature yesterday: 82 °F (at 10:53 AM)
Minimum temperature yesterday: 73 °F (at 6:53 AM)
Average temperature yesterday: 77 °F

Past Weeks' High & Low Weather Summary

 TemperatureHumidityPressure
High96 °F (Aug 24, 3:53 PM)100% (Aug 23, 4:53 AM)30.12 "Hg (Aug 23, 4:53 AM)
Low67 °F (Aug 29, 6:53 AM)38% (Aug 27, 12:53 PM)29.80 "Hg (Aug 19, 6:53 PM)
Average80 °F80%29.98 "Hg
* Reported Aug 18 4:53 AM — Sep 2 4:53 AM, Beaumont, Weather by CustomWeather, © 2015

Note: Actual official high and low records may vary slightly from our data, if they occured in-between our weather recording intervals... More about our weather records

Advertising

Beaumont weather history for previous 24 hours

 ConditionsComfort  
Time TempWeatherWind HumidityBarometerVisibility
4:53 AM
Wed, Sep 2
75 °FLight rain. Overcast.No wind94%30.02 "Hg9 mi
3:53 AM76 °FLight rain. Fog.3 mph94%30.02 "Hg6 mi
2:53 AM76 °FPassing clouds.7 mph94%30.03 "Hg8 mi
1:53 AM76 °FClear.N/A94%30.03 "Hg9 mi
12:53 AM76 °FPassing clouds.3 mph94%30.04 "Hg10 mi
11:53 PM
Tue, Sep 1
76 °FPassing clouds.5 mph94%30.04 "Hg10 mi
10:53 PM76 °FPassing clouds.5 mph94%30.03 "Hg10 mi
9:53 PM77 °FPassing clouds.3 mph90%30.03 "Hg10 mi
8:53 PM77 °FPassing clouds.5 mph90%30.01 "Hg10 mi
7:53 PM77 °FPartly sunny.8 mph90%30.01 "Hg10 mi
6:53 PM78 °FPartly sunny.5 mph87%30.01 "Hg10 mi
5:53 PM78 °FLight rain. Partly sunny.No wind84%30.01 "Hg10 mi
4:53 PM78 °FLight rain. Passing clouds.No wind87%30.04 "Hg10 mi
3:53 PM78 °FMore clouds than sun.6 mph84%30.03 "Hg10 mi
2:53 PM80 °FThundershowers. Broken clouds.8 mph85%30.05 "Hg10 mi
1:55 PM76 °FHeavy rain. Fog.8 mph91%30.05 "Hg3 mi
12:53 PM81 °FLight rain. Broken clouds.5 mph88%30.06 "Hg10 mi
11:53 AM81 °FScattered clouds.5 mph85%30.07 "Hg10 mi
10:53 AM82 °FScattered clouds.6 mph82%30.06 "Hg10 mi
9:53 AM81 °FPassing clouds.6 mph88%30.04 "Hg10 mi
8:53 AM79 °FOvercast.5 mph90%30.05 "Hg10 mi
7:53 AM76 °FSunny.3 mph94%30.02 "Hg10 mi
6:53 AM73 °FFog.No wind97%30.01 "Hg3 mi
Weather by CustomWeather, © 2015

See weather overviewHow to use our weather pages